Location: Zagreb
(45.8000°N, 16.0000°E)
Time: 14:46:33
(UTC+02:00)

Vanguard 1 - Pass Details

Date: 17 August 2022
Orbit: 649 x 3832 km, 34.2° (Epoch: 25 September)

Event Time Altitude Azimuth Distance (km) Brightness Sun altitude
Rises 03:24:41 0° 224° (SW) 4,851 - -22.4°
Reaches altitude 10° 03:27:33 10° 217° (SW) 4,210 - -22.1°
Exits shadow 03:31:51 27° 201° (SSW) 3,526 12.3 -21.6°
Maximum altitude 03:38:51 43° 151° (SSE) 3,437 12.6 -20.8°
Drops below altitude 10° 03:57:13 10° 90° (E) 6,692 14.9 -18.6°
Sets 04:03:19 0° 85° (E) 7,912 15.5 -17.8°
